This demonstration page uses our WeatherBlox Daily Observations layout. Learn more.

Left ArrowRight Arrow

Hourly Observations for December 13, 2021

Temp ( °F °C ) Dew Point ( °F °C ) Humidity (%) Winds ( mph kmh ) Pressure ( in mb ) Visibility ( mi km ) Precip ( " mm )
12:59 am 00:59 Clear 36 2.2 27 -2.8 70 70 SSW 6 9 30.39 1029 10 16 0.00 0.00
1:59 am 01:59 Clear 37 2.8 26 -3.3 65 65 Calm 30.40 1029 10 16 0.00 0.00
2:59 am 02:59 Clear 33 0.6 26 -3.3 75 75 S 3 6 30.40 1029 10 16 0.00 0.00
3:59 am 03:59 Clear 33 0.6 27 -2.8 78 78 Calm 30.39 1029 10 16 0.00 0.00
4:59 am 04:59 Clear 31 -0.6 27 -2.8 85 85 S 3 6 30.41 1030 10 16 0.00 0.00
5:59 am 05:59 Clear 36 2.2 26 -3.3 67 67 SW 3 6 30.41 1030 10 16 0.00 0.00
6:59 am 06:59 Clear 32 0 26 -3.3 79 79 Calm 30.42 1030 10 16 0.00 0.00
7:59 am 07:59 Sunny 36 2.2 28 -2.2 73 73 VRB 3 6 30.44 1031 10 16 0.00 0.00
8:59 am 08:59 Sunny 44 6.7 28 -2.2 53 53 SW 7 11 30.46 1031 10 16 0.00 0.00
9:59 am 09:59 Sunny 48 8.9 28 -2.2 46 46 SW 10 17 30.45 1031 10 16 0.00 0.00
10:59 am 10:59 Sunny 51 10.6 27 -2.8 39 39 WSW 9 15 30.42 1030 10 16 0.00 0.00
11:59 am 11:59 Sunny 53 11.7 26 -3.3 35 35 SSW 12 19 30.39 1029 10 16 0.00 0.00
12:59 pm 12:59 Sunny 54 12.2 27 -2.8 35 35 WSW 7 11 30.37 1029 10 16 0.00 0.00
1:59 pm 13:59 Sunny 56 13.3 27 -2.8 33 33 W 6 9 30.35 1028 10 16 0.00 0.00
2:59 pm 14:59 Sunny 56 13.3 27 -2.8 33 33 SSW 9 15 30.33 1027 10 16 0.00 0.00
3:59 pm 15:59 Mostly Sunny 56 13.3 28 -2.2 34 34 SW 8 13 30.34 1027 10 16 0.00 0.00
4:59 pm 16:59 Mostly Clear 50 10 30 -1.1 46 46 SW 5 7 30.35 1028 10 16 0.00 0.00
5:59 pm 17:59 Mostly Clear 45 7.2 33 0.6 63 63 S 3 6 30.36 1028 10 16 0.00 0.00
6:59 pm 18:59 Clear 42 5.6 32 0 68 68 S 3 6 30.37 1028 10 16 0.00 0.00
7:59 pm 19:59 Clear 41 5 32 0 70 70 S 3 6 30.38 1029 10 16 0.00 0.00
8:59 pm 20:59 Clear 43 6.1 31 -0.6 63 63 S 6 9 30.38 1029 10 16 0.00 0.00
9:59 pm 21:59 Clear 45 7.2 31 -0.6 58 58 SSW 6 9 30.37 1029 10 16 0.00 0.00
10:59 pm 22:59 Clear 42 5.6 31 -0.6 65 65 SSW 3 6 30.38 1029 10 16 0.00 0.00
11:59 pm 23:59 Clear 43 6.1 32 0 65 65 SSW 3 6 30.37 1029 10 16 0.00 0.00

Powered by AerisWeather